Location: U-46 Planetarium
(42.0300°N, 88.2740°W)
Time: 06:57:20
(UTC-05:00)

NOSS 3-2 (A) - Pass Details

Date: 16 December 2017
Orbit: 851 x 1357 km, 63.4° (Epoch: 03 July)

Event Time Altitude Azimuth Distance (km) Brightness Sun altitude
Rises 16:56:30 0° 326° (NW) 3,950 6.8 -6.3°
Reaches altitude 10° 16:59:13 10° 333° (NNW) 3,061 6.1 -6.8°
Maximum altitude 17:06:22 47° 46° (NE) 1,600 4.3 -8.0°
Drops below altitude 10° 17:14:11 10° 119° (ESE) 3,350 5.9 -9.3°
Sets 17:17:17 0° 125° (SE) 4,352 6.6 -9.9°
